,,PA_Meas_PMT16A,,PR_Meas_QMR101_102,,RH_Meas_QMH101,,SR_Meas_QMS101,,TA_Meas_QMH101,,GenWind,,GenWind,
time,status,PA,status,PR,status,RH,status,SR,status,TA,status,DirAvg,status,SpdAvg,
2014-04-13, 06:45:04,VALID,917.59,VALID,0,VALID,93.5241,VALID,42.9765,VALID,18.125,VALID,147,VALID,1.10078,
2014-04-13, 06:46:04,VALID,917.601,VALID,0,VALID,93.5012,VALID,47.7039,VALID,18.125,VALID,147,VALID,1.14063,
2014-04-13, 06:47:04,VALID,917.574,VALID,0,VALID,93.5317,VALID,46.522,VALID,18.125,VALID,145,VALID,0.932813,
2014-04-13, 06:48:04,VALID,917.584,VALID,0,VALID,93.5164,VALID,45.7699,VALID,18.125,VALID,146,VALID,1.01484,
2014-04-13, 06:49:04,VALID,917.553,VALID,0,VALID,93.4478,VALID,47.1667,VALID,18.1654,VALID,146,VALID,1.09531,
2014-04-13, 06:50:04,VALID,917.587,VALID,0,VALID,93.4555,VALID,49.1006,VALID,18.1849,VALID,146,VALID,1.26445,
2014-04-13, 06:51:04,VALID,917.574,VALID,0,VALID,93.4631,VALID,51.2494,VALID,18.2044,VALID,147,VALID,1.23906,
2014-04-13, 06:52:04,VALID,917.631,VALID,0,VALID,93.425,VALID,53.9355,VALID,18.2433,VALID,150,VALID,0.874219,
2014-04-13, 06:53:04,VALID,917.645,VALID,0,VALID,93.2954,VALID,56.1917,VALID,18.2823,VALID,150,VALID,1.01797,
2014-04-13, 06:54:04,VALID,917.648,VALID,0,VALID,93.181,VALID,57.9108,VALID,18.3004,VALID,150,VALID,0.782031,
2014-04-13, 06:55:04,VALID,917.656,VALID,0,VALID,93.0285,VALID,60.0596,VALID,18.3394,VALID,149,VALID,0.596484,
2014-04-13, 06:56:04,VALID,917.71,VALID,0,VALID,92.9371,VALID,63.3903,VALID,18.3798,VALID,149,VALID,0.767969,
2014-04-13, 06:57:04,VALID,917.678,VALID,0,VALID,92.8532,VALID,66.1837,VALID,18.4188,VALID,149,VALID,0.834766,
2014-04-13, 06:58:04,VALID,917.717,VALID,0,VALID,92.7236,VALID,67.9028,VALID,18.4578,VALID,149,VALID,0.989453,
2014-04-13, 06:59:04,VALID,917.71,VALID,0,VALID,92.5483,VALID,70.2665,VALID,18.4954,VALID,149,VALID,0.832812,
2014-04-13, 07:00:04,VALID,917.726,VALID,0,VALID,92.3424,VALID,71.9856,VALID,18.5748,VALID,149,VALID,0.763281,
2014-04-13, 07:01:04,VALID,917.766,VALID,0,VALID,92.0909,VALID,73.1674,VALID,18.6333,VALID,149,VALID,0.84375,
2014-04-13, 07:02:04,VALID,917.782,VALID,0,VALID,91.8545,VALID,75.1014,VALID,18.6708,VALID,149,VALID,0.871875,
2014-04-13, 07:03:04,VALID,917.792,VALID,0,VALID,91.7021,VALID,77.5725,VALID,18.7308,VALID,149,VALID,0.842578,
2014-04-13, 07:04:04,VALID,917.785,VALID,0,VALID,91.5115,VALID,80.5809,VALID,18.7488,VALID,149,VALID,1.00391,
2014-04-13, 07:05:04,VALID,917.807,VALID,0,VALID,91.3361,VALID,83.1595,VALID,18.7892,VALID,149,VALID,0.873438,
2014-04-13, 07:06:04,VALID,917.838,VALID,0,VALID,91.2523,VALID,84.7711,VALID,18.8073,VALID,147,VALID,1.03477,
2014-04-13, 07:07:04,VALID,917.841,VALID,0,VALID,91.298,VALID,85.4157,VALID,18.8477,VALID,142,VALID,0.826172,
2014-04-13, 07:08:04,VALID,917.859,VALID,0,VALID,91.298,VALID,86.0604,VALID,18.8853,VALID,140,VALID,0.842188,
2014-04-13, 07:09:04,VALID,917.872,VALID,0,VALID,91.2447,VALID,87.9943,VALID,18.9257,VALID,138,VALID,1.00469,
2014-04-13, 07:10:04,VALID,917.855,VALID,0,VALID,91.2904,VALID,89.9282,VALID,18.9842,VALID,137,VALID,0.679688,
2014-04-13, 07:11:04,VALID,917.893,VALID,0,VALID,91.2675,VALID,92.8292,VALID,19.0037,VALID,137,VALID,0.741797,
2014-04-13, 07:12:04,VALID,917.905,VALID,0,VALID,91.1837,VALID,94.6557,VALID,19.0023,VALID,134,VALID,0.814062,
2014-04-13, 07:13:04,VALID,917.908,VALID,0,VALID,91.1379,VALID,94.4408,VALID,19.0218,VALID,116,VALID,0.664063,
2014-04-13, 07:14:04,VALID,917.948,VALID,0,VALID,91.1532,VALID,93.2589,VALID,19.0413,VALID,116,VALID,0.919141,
2014-04-13, 07:15:04,VALID,917.969,VALID,0,VALID,91.077,VALID,95.8375,VALID,19.0413,VALID,120,VALID,1.06328,
2014-04-13, 07:16:04,VALID,917.959,VALID,0,VALID,91.2142,VALID,97.8789,VALID,19.0218,VALID,123,VALID,0.835938,
2014-04-13, 07:17:04,VALID,918.003,VALID,0,VALID,91.4124,VALID,98.2012,VALID,19.0413,VALID,125,VALID,0.832812,
2014-04-13, 07:18:04,VALID,918.032,VALID,0,VALID,91.298,VALID,101.747,VALID,19.0608,VALID,128,VALID,0.823828,
2014-04-13, 07:19:04,VALID,918.028,VALID,0,VALID,91.1989,VALID,105.292,VALID,19.0817,VALID,129,VALID,0.835547,
2014-04-13, 07:20:04,VALID,918.03,VALID,0,VALID,91.1532,VALID,106.474,VALID,19.1193,VALID,129,VALID,0.833594,
2014-04-13, 07:21:04,VALID,918.024,VALID,0,VALID,91.0846,VALID,105.83,VALID,19.1388,VALID,120,VALID,0.755859,
2014-04-13, 07:22:04,VALID,918.054,VALID,0,VALID,90.9169,VALID,106.474,VALID,19.1583,VALID,117,VALID,0.9,
2014-04-13, 07:23:04,VALID,918.047,VALID,0,VALID,90.8711,VALID,110.342,VALID,19.1973,VALID,124,VALID,0.617578,
2014-04-13, 07:24:04,VALID,918.071,VALID,0,VALID,90.8101,VALID,114.64,VALID,19.2363,VALID,115,VALID,0.696484,
2014-04-13, 07:25:04,VALID,918.108,VALID,0,VALID,90.7568,VALID,120.119,VALID,19.2767,VALID,115,VALID,0.692969,
2014-04-13, 07:26:04,VALID,918.085,VALID,0,VALID,90.6272,VALID,121.946,VALID,19.2753,VALID,118,VALID,0.832031,
2014-04-13, 07:27:04,VALID,918.128,VALID,0,VALID,90.3985,VALID,123.45,VALID,19.2948,VALID,121,VALID,1.13203,
2014-04-13, 07:28:04,VALID,918.097,VALID,0,VALID,90.2155,VALID,121.838,VALID,19.3338,VALID,126,VALID,0.990625,
2014-04-13, 07:29:04,VALID,918.118,VALID,0,VALID,89.8115,VALID,118.83,VALID,19.3533,VALID,129,VALID,0.922656,
2014-04-13, 07:30:04,VALID,918.108,VALID,0,VALID,89.9334,VALID,118.937,VALID,19.3728,VALID,120,VALID,1.11055,
2014-04-13, 07:31:04,VALID,918.119,VALID,0,VALID,90.185,VALID,121.409,VALID,19.3908,VALID,132,VALID,0.857422,
2014-04-13, 07:32:04,VALID,918.09,VALID,0,VALID,90.307,VALID,120.549,VALID,19.4103,VALID,141,VALID,1.03477,
2014-04-13, 07:33:04,VALID,918.117,VALID,0,VALID,89.8801,VALID,122.375,VALID,19.4103,VALID,139,VALID,1.37383,
2014-04-13, 07:34:04,VALID,918.118,VALID,0,VALID,89.6819,VALID,122.483,VALID,19.4313,VALID,133,VALID,1.34023,
2014-04-13, 07:35:04,VALID,918.122,VALID,0,VALID,89.6437,VALID,123.88,VALID,19.4298,VALID,139,VALID,1.14063,
2014-04-13, 07:36:04,VALID,918.126,VALID,0,VALID,89.2245,VALID,125.706,VALID,19.4313,VALID,128,VALID,1.46328,
2014-04-13, 07:37:04,VALID,918.121,VALID,0,VALID,89.2702,VALID,126.458,VALID,19.4508,VALID,139,VALID,1.52383,
2014-04-13, 07:38:04,VALID,918.12,VALID,0,VALID,89.6514,VALID,128.285,VALID,19.4898,VALID,140,VALID,0.848047,
2014-04-13, 07:39:04,VALID,918.142,VALID,0,VALID,89.6742,VALID,131.508,VALID,19.4688,VALID,133,VALID,0.926172,
2014-04-13, 07:40:04,VALID,918.139,VALID,0,VALID,89.6285,VALID,135.698,VALID,19.4688,VALID,145,VALID,1.1207,
2014-04-13, 07:41:04,VALID,918.162,VALID,0,VALID,89.6514,VALID,137.202,VALID,19.5078,VALID,146,VALID,1.08047,
2014-04-13, 07:42:04,VALID,918.174,VALID,0,VALID,89.4989,VALID,137.847,VALID,19.5288,VALID,138,VALID,1.04883,
2014-04-13, 07:43:04,VALID,918.192,VALID,0,VALID,89.0872,VALID,137.954,VALID,19.5483,VALID,130,VALID,0.938672,
2014-04-13, 07:44:04,VALID,918.184,VALID,0,VALID,88.9805,VALID,140.533,VALID,19.5873,VALID,129,VALID,0.957812,
2014-04-13, 07:45:04,VALID,918.205,VALID,0,VALID,88.9653,VALID,143.434,VALID,19.6248,VALID,119,VALID,1.04336,
2014-04-13, 07:46:04,VALID,918.21,VALID,0,VALID,88.3401,VALID,144.723,VALID,19.6653,VALID,125,VALID,0.920313,
2014-04-13, 07:47:04,VALID,918.243,VALID,0,VALID,88.4545,VALID,148.591,VALID,19.7223,VALID,122,VALID,0.677344,
2014-04-13, 07:48:04,VALID,918.2,VALID,0,VALID,88.7747,VALID,153.533,VALID,19.8198,VALID,119,VALID,0.344141,
2014-04-13, 07:49:04,VALID,918.221,VALID,0,VALID,88.8967,VALID,157.186,VALID,19.8798,VALID,115,VALID,0.578516,
2014-04-13, 07:50:04,VALID,918.226,VALID,0,VALID,88.9729,VALID,161.054,VALID,19.9563,VALID,115,VALID,0.433984,
2014-04-13, 07:51:04,VALID,918.233,VALID,0,VALID,89.1787,VALID,162.344,VALID,20.0553,VALID,115,VALID,0.275781,
2014-04-13, 07:52:04,VALID,918.235,VALID,0,VALID,88.9271,VALID,165.03,VALID,20.0928,VALID,115,VALID,0,
2014-04-13, 07:53:04,VALID,918.284,VALID,0,VALID,88.8738,VALID,168.575,VALID,20.1903,VALID,115,VALID,0,
2014-04-13, 07:54:04,VALID,918.26,VALID,0,VALID,88.3173,VALID,174.914,VALID,20.3074,VALID,115,VALID,0,
2014-04-13, 07:55:04,VALID,918.276,VALID,0,VALID,87.8904,VALID,172.336,VALID,20.4244,VALID,115,VALID,0.00429688,
2014-04-13, 07:56:04,VALID,918.322,VALID,0,VALID,87.1051,VALID,175.666,VALID,20.5414,VALID,115,VALID,0.308203,
2014-04-13, 07:57:04,VALID,918.274,VALID,0,VALID,85.0926,VALID,180.179,VALID,20.5414,VALID,115,VALID,0.810547,
2014-04-13, 07:58:04,VALID,918.276,VALID,0,VALID,85.7863,VALID,186.518,VALID,20.5414,VALID,115,VALID,0.696875,
2014-04-13, 07:59:04,VALID,918.264,VALID,0,VALID,86.3657,VALID,192.427,VALID,20.5219,VALID,119,VALID,0.698828,
2014-04-13, 08:00:04,VALID,918.287,VALID,0,VALID,86.2361,VALID,202.097,VALID,20.5219,VALID,130,VALID,0.783984,
2014-04-13, 08:01:04,VALID,918.282,VALID,0,VALID,86.8536,VALID,207.039,VALID,20.5609,VALID,137,VALID,0.301953,
2014-04-13, 08:02:04,VALID,918.286,VALID,0,VALID,86.4114,VALID,217.783,VALID,20.6194,VALID,137,VALID,0.702344,
2014-04-13, 08:03:04,VALID,918.312,VALID,0,VALID,86.602,VALID,233.362,VALID,20.6585,VALID,137,VALID,0.683203,
2014-04-13, 08:04:04,VALID,918.289,VALID,0,VALID,86.0074,VALID,225.197,VALID,20.678,VALID,127,VALID,0.733594,
2014-04-13, 08:05:04,VALID,918.295,VALID,0,VALID,86.602,VALID,231.751,VALID,20.717,VALID,127,VALID,0.751562,
2014-04-13, 08:06:04,VALID,918.284,VALID,0,VALID,86.7392,VALID,242.924,VALID,20.756,VALID,127,VALID,0.694922,
2014-04-13, 08:07:04,VALID,918.298,VALID,0,VALID,85.4814,VALID,246.148,VALID,20.795,VALID,125,VALID,0.933984,
2014-04-13, 08:08:04,VALID,918.319,VALID,0,VALID,85.8778,VALID,255.925,VALID,20.834,VALID,125,VALID,0.748047,
2014-04-13, 08:09:04,VALID,918.338,VALID,0,VALID,86.3962,VALID,268.281,VALID,20.8714,VALID,125,VALID,0.365625,
2014-04-13, 08:10:04,VALID,918.343,VALID,0,VALID,86.541,VALID,276.446,VALID,21.008,VALID,123,VALID,0.591016,
2014-04-13, 08:11:04,VALID,918.348,VALID,0,VALID,86.4114,VALID,274.405,VALID,21.1852,VALID,112,VALID,0.597656,
2014-04-13, 08:12:04,VALID,918.382,VALID,0,VALID,86.2208,VALID,293.099,VALID,21.3201,VALID,50,VALID,1.37773,
2014-04-13, 08:13:04,VALID,918.417,VALID,0,VALID,84.3683,VALID,311.794,VALID,21.4193,VALID,51,VALID,0.783984,
2014-04-13, 08:14:04,VALID,918.427,VALID,0,VALID,83.4307,VALID,301.05,VALID,21.4762,VALID,51,VALID,1.02656,
2014-04-13, 08:15:04,VALID,918.448,VALID,0,VALID,83.9948,VALID,314.05,VALID,21.5559,VALID,56,VALID,0.907422,
2014-04-13, 08:16:04,VALID,918.457,VALID,0,VALID,80.6786,VALID,313.513,VALID,21.5559,VALID,51,VALID,0.800391,
2014-04-13, 08:17:04,VALID,918.464,VALID,0,VALID,79.1539,VALID,318.778,VALID,21.6339,VALID,64,VALID,0.953906,
2014-04-13, 08:18:04,VALID,918.455,VALID,0,VALID,79.192,VALID,318.026,VALID,21.6924,VALID,64,VALID,0.776563,
2014-04-13, 08:19:04,VALID,918.476,VALID,0,VALID,79.3826,VALID,319.637,VALID,21.751,VALID,64,VALID,0.659375,
2014-04-13, 08:20:04,VALID,918.486,VALID,0,VALID,78.6965,VALID,332.853,VALID,21.829,VALID,64,VALID,0.752344,
2014-04-13, 08:21:04,VALID,918.48,VALID,0,VALID,78.605,VALID,343.812,VALID,21.8876,VALID,64,VALID,0.990234,
2014-04-13, 08:22:04,VALID,918.484,VALID,0,VALID,79.1692,VALID,345.638,VALID,21.9054,VALID,64,VALID,0.622266,
2014-04-13, 08:23:04,VALID,918.541,VALID,0,VALID,79.7028,VALID,348.002,VALID,21.9656,VALID,64,VALID,0.585938,
2014-04-13, 08:24:04,VALID,918.547,VALID,0,VALID,80.4804,VALID,347.68,VALID,22.0632,VALID,64,VALID,0.249609,
2014-04-13, 08:25:04,VALID,918.553,VALID,0,VALID,80.1602,VALID,363.044,VALID,22.2371,VALID,64,VALID,0.0511719,
2014-04-13, 08:26:04,VALID,918.571,VALID,0,VALID,78.0028,VALID,346.605,VALID,22.4518,VALID,64,VALID,0.210156,
2014-04-13, 08:27:04,VALID,918.568,VALID,0,VALID,79.253,VALID,345.853,VALID,22.6665,VALID,50,VALID,0.717578,
2014-04-13, 08:28:04,VALID,918.596,VALID,0,VALID,77.6902,VALID,354.448,VALID,22.8634,VALID,45,VALID,0.516406,
2014-04-13, 08:29:04,VALID,918.585,VALID,0,VALID,76.9431,VALID,345.208,VALID,22.9397,VALID,66,VALID,0.685547,
2014-04-13, 08:30:04,VALID,918.585,VALID,0,VALID,77.6292,VALID,338.762,VALID,22.9397,VALID,66,VALID,0.573438,
2014-04-13, 08:31:04,VALID,918.609,VALID,0,VALID,77.8656,VALID,336.076,VALID,22.9575,VALID,35,VALID,1.24102,
2014-04-13, 08:32:04,VALID,918.607,VALID,0,VALID,76.3028,VALID,318.993,VALID,22.9202,VALID,16,VALID,0.943359,
2014-04-13, 08:33:04,VALID,918.609,VALID,0,VALID,76.7525,VALID,311.472,VALID,22.9397,VALID,27,VALID,1.00117,
2014-04-13, 08:34:04,VALID,918.561,VALID,0,VALID,76.5772,VALID,307.604,VALID,22.938,VALID,30,VALID,0.669141,
2014-04-13, 08:35:04,VALID,918.587,VALID,0,VALID,76.4171,VALID,306.959,VALID,22.9397,VALID,14,VALID,1.17148,
2014-04-13, 08:36:04,VALID,918.586,VALID,0,VALID,75.4185,VALID,309.645,VALID,22.9787,VALID,30,VALID,0.738672,
2014-04-13, 08:37:04,VALID,918.596,VALID,0,VALID,75.4108,VALID,316.737,VALID,22.9397,VALID,45,VALID,1.0957,
2014-04-13, 08:38:04,VALID,918.594,VALID,0,VALID,76.7525,VALID,335.754,VALID,22.9592,VALID,41,VALID,1.13984,
2014-04-13, 08:39:04,VALID,918.581,VALID,0,VALID,74.5036,VALID,353.052,VALID,22.9575,VALID,40,VALID,1.27695,
2014-04-13, 08:40:04,VALID,918.587,VALID,0,VALID,74.5189,VALID,358.531,VALID,22.9185,VALID,38,VALID,1.21289,
2014-04-13, 08:41:04,VALID,918.601,VALID,0,VALID,74.7857,VALID,360.68,VALID,22.9397,VALID,24,VALID,1.02617,
2014-04-13, 08:42:04,VALID,918.604,VALID,0,VALID,75.4642,VALID,358.531,VALID,22.938,VALID,50,VALID,1.11172,
2014-04-13, 08:43:04,VALID,918.648,VALID,0,VALID,74.5875,VALID,347.68,VALID,22.938,VALID,49,VALID,1.24219,
2014-04-13, 08:44:04,VALID,918.653,VALID,0,VALID,73.7261,VALID,343.919,VALID,22.8989,VALID,47,VALID,1.06289,
2014-04-13, 08:45:04,VALID,918.67,VALID,0,VALID,73.566,VALID,360.465,VALID,22.8812,VALID,48,VALID,1.04727,
2014-04-13, 08:46:04,VALID,918.705,VALID,0,VALID,76.8212,VALID,358.316,VALID,22.8812,VALID,60,VALID,0.716797,
2014-04-13, 08:47:04,VALID,918.703,VALID,0,VALID,77.4539,VALID,362.936,VALID,22.9787,VALID,64,VALID,0.948047,
2014-04-13, 08:48:04,VALID,918.7,VALID,0,VALID,76.7525,VALID,356.812,VALID,23.1349,VALID,58,VALID,0.195703,
2014-04-13, 08:49:04,VALID,918.716,VALID,0,VALID,75.2812,VALID,355.308,VALID,23.3301,VALID,59,VALID,0.6125,
2014-04-13, 08:50:04,VALID,918.68,VALID,0,VALID,73.322,VALID,351.87,VALID,23.4667,VALID,61,VALID,0.586719,
2014-04-13, 08:51:04,VALID,918.685,VALID,0,VALID,75.3651,VALID,364.333,VALID,23.5839,VALID,39,VALID,0.582422,
2014-04-13, 08:52:04,VALID,918.702,VALID,0,VALID,75.2279,VALID,354.986,VALID,23.701,VALID,35,VALID,0.642187,
2014-04-13, 08:53:04,VALID,918.696,VALID,0,VALID,68.1533,VALID,343.06,VALID,23.7791,VALID,11,VALID,1.34336,
2014-04-13, 08:54:04,VALID,918.729,VALID,0,VALID,70.0439,VALID,330.059,VALID,23.74,VALID,33,VALID,1.12617,
2014-04-13, 08:55:04,VALID,918.768,VALID,0,VALID,73.0552,VALID,333.712,VALID,23.8181,VALID,22,VALID,0.676953,
2014-04-13, 08:56:04,VALID,918.755,VALID,0,VALID,67.9932,VALID,342.093,VALID,23.8572,VALID,9,VALID,0.866406,
2014-04-13, 08:57:04,VALID,918.759,VALID,0,VALID,68.1076,VALID,342.415,VALID,23.8358,VALID,9,VALID,0.928125,
2014-04-13, 08:58:04,VALID,918.77,VALID,0,VALID,72.5139,VALID,350.043,VALID,23.8554,VALID,9,VALID,0.993359,
2014-04-13, 08:59:04,VALID,918.808,VALID,0,VALID,71.9117,VALID,364.655,VALID,23.8749,VALID,9,VALID,0.852734,
2014-04-13, 09:00:04,VALID,918.802,VALID,0,VALID,67.8865,VALID,373.895,VALID,23.8767,VALID,11,VALID,0.725781,
2014-04-13, 09:01:04,VALID,918.861,VALID,0,VALID,70.2498,VALID,364.225,VALID,23.9548,VALID,355,VALID,0.375,
2014-04-13, 09:02:04,VALID,918.859,VALID,0,VALID,73.0933,VALID,378.623,VALID,24.0311,VALID,355,VALID,0.176172,
2014-04-13, 09:03:04,VALID,918.871,VALID,0,VALID,70.7377,VALID,371.209,VALID,24.1092,VALID,318,VALID,0.619141,
2014-04-13, 09:04:04,VALID,918.896,VALID,0,VALID,71.7363,VALID,349.828,VALID,24.111,VALID,321,VALID,0.816016,
2014-04-13, 09:05:04,VALID,918.929,VALID,0,VALID,71.096,VALID,340.588,VALID,23.9335,VALID,318,VALID,0.369922,
2014-04-13, 09:06:04,VALID,918.928,VALID,0,VALID,72.8417,VALID,342.845,VALID,23.7382,VALID,321,VALID,0.303125,
2014-04-13, 09:07:04,VALID,918.93,VALID,0,VALID,72.331,VALID,348.109,VALID,23.7187,VALID,11,VALID,0.573047,
2014-04-13, 09:08:04,VALID,918.951,VALID,0,VALID,72.2319,VALID,354.448,VALID,23.7578,VALID,351,VALID,0.702344,
2014-04-13, 09:09:04,VALID,918.941,VALID,0,VALID,72.6054,VALID,343.167,VALID,23.7773,VALID,324,VALID,0.580859,
2014-04-13, 09:10:04,VALID,918.964,VALID,0,VALID,74.6637,VALID,338.977,VALID,23.7364,VALID,324,VALID,0.321875,
2014-04-13, 09:11:04,VALID,918.925,VALID,0,VALID,74.3664,VALID,344.134,VALID,23.7187,VALID,324,VALID,0.521094,
2014-04-13, 09:12:04,VALID,918.94,VALID,0,VALID,76.4095,VALID,346.927,VALID,23.7187,VALID,328,VALID,0.392578,
2014-04-13, 09:13:04,VALID,918.975,VALID,0,VALID,75.2965,VALID,348.647,VALID,23.7773,VALID,336,VALID,0.182031,
2014-04-13, 09:14:04,VALID,918.963,VALID,0,VALID,76.1122,VALID,350.473,VALID,23.8749,VALID,336,VALID,0.495703,
2014-04-13, 09:15:04,VALID,918.925,VALID,0,VALID,74.0691,VALID,346.82,VALID,23.992,VALID,336,VALID,0.444141,
2014-04-13, 09:16:04,VALID,918.966,VALID,0,VALID,72.918,VALID,340.159,VALID,24.0506,VALID,354,VALID,1.14414,
2014-04-13, 09:17:04,VALID,918.96,VALID,0,VALID,73.8938,VALID,335.324,VALID,24.1092,VALID,10,VALID,1.14727,
2014-04-13, 09:18:04,VALID,918.986,VALID,0,VALID,72.8799,VALID,331.456,VALID,24.1677,VALID,10,VALID,0.259766,
2014-04-13, 09:19:04,VALID,919.011,VALID,0,VALID,70.4327,VALID,327.481,VALID,24.0896,VALID,330,VALID,0.469531,
2014-04-13, 09:20:04,VALID,919.043,VALID,0,VALID,72.6054,VALID,335.324,VALID,23.9335,VALID,330,VALID,0.589063,
2014-04-13, 09:21:04,VALID,919.035,VALID,0,VALID,72.2776,VALID,336.398,VALID,23.8554,VALID,330,VALID,0.00585938,
2014-04-13, 09:22:04,VALID,919.066,VALID,0,VALID,70.7148,VALID,341.126,VALID,23.8944,VALID,330,VALID,0.541016,
2014-04-13, 09:23:04,VALID,919.077,VALID,0,VALID,64.8067,VALID,348.861,VALID,23.8358,VALID,330,VALID,0.95625,
2014-04-13, 09:24:04,VALID,919.086,VALID,0,VALID,64.9058,VALID,356.705,VALID,23.7773,VALID,330,VALID,0,
2014-04-13, 09:25:04,VALID,919.099,VALID,0,VALID,64.9591,VALID,362.506,VALID,23.8731,VALID,330,VALID,0.0757812,
2014-04-13, 09:26:04,VALID,919.1,VALID,0,VALID,65.0735,VALID,364.333,VALID,24.0115,VALID,330,VALID,0.292969,
2014-04-13, 09:27:04,VALID,919.123,VALID,0,VALID,68.6412,VALID,367.986,VALID,24.0896,VALID,330,VALID,0.471484,
2014-04-13, 09:28:04,VALID,919.153,VALID,0,VALID,69.8229,VALID,379.912,VALID,24.1482,VALID,330,VALID,0.228906,
2014-04-13, 09:29:04,VALID,919.182,VALID,0,VALID,70.7834,VALID,382.705,VALID,24.3044,VALID,330,VALID,0.00351562,
2014-04-13, 09:30:04,VALID,919.156,VALID,0,VALID,68.9995,VALID,399.251,VALID,24.4801,VALID,330,VALID,0.0652344,
2014-04-13, 09:31:04,VALID,919.171,VALID,0,VALID,68.7022,VALID,405.161,VALID,24.4978,VALID,330,VALID,0.428906,
2014-04-13, 09:32:04,VALID,919.182,VALID,0,VALID,67.1394,VALID,409.566,VALID,24.5564,VALID,330,VALID,0.583984,
2014-04-13, 09:33:04,VALID,919.18,VALID,0,VALID,67.2766,VALID,400.541,VALID,24.6949,VALID,330,VALID,0.24375,
2014-04-13, 09:34:04,VALID,919.211,VALID,0,VALID,62.5578,VALID,394.954,VALID,24.773,VALID,330,VALID,0.885547,
2014-04-13, 09:35:04,VALID,919.227,VALID,0,VALID,62.6721,VALID,426.971,VALID,24.6168,VALID,330,VALID,0.468359,
2014-04-13, 09:36:04,VALID,919.219,VALID,0,VALID,64.6161,VALID,435.029,VALID,24.6149,VALID,330,VALID,0.191016,
2014-04-13, 09:37:04,VALID,919.232,VALID,0,VALID,63.1143,VALID,425.789,VALID,24.7144,VALID,330,VALID,0.591406,
2014-04-13, 09:38:04,VALID,919.234,VALID,0,VALID,65.2793,VALID,455.443,VALID,24.7516,VALID,330,VALID,0.292578,
2014-04-13, 09:39:04,VALID,919.231,VALID,0,VALID,64.7152,VALID,488.32,VALID,24.9274,VALID,330,VALID,0.588672,
2014-04-13, 09:40:04,VALID,919.241,VALID,0,VALID,64.0748,VALID,498.634,VALID,25.1031,VALID,35,VALID,0.886719,
2014-04-13, 09:41:04,VALID,919.264,VALID,0,VALID,64.1206,VALID,499.816,VALID,25.2203,VALID,10,VALID,0.738281,
2014-04-13, 09:42:04,VALID,919.279,VALID,0,VALID,64.3645,VALID,498.097,VALID,25.3179,VALID,8,VALID,0.0445312,
2014-04-13, 09:43:04,VALID,919.213,VALID,0,VALID,63.6327,VALID,513.676,VALID,25.5327,VALID,17,VALID,1.40078,
2014-04-13, 09:44:04,VALID,919.271,VALID,0,VALID,62.7483,VALID,533.553,VALID,25.5913,VALID,20,VALID,1.27734,
2014-04-13, 09:45:04,VALID,919.262,VALID,0,VALID,62.4053,VALID,537.313,VALID,25.5718,VALID,6,VALID,1.53281,
2014-04-13, 09:46:04,VALID,919.256,VALID,0,VALID,64.5856,VALID,551.281,VALID,25.5913,VALID,6,VALID,1.47734,
2014-04-13, 09:47:04,VALID,919.293,VALID,0,VALID,64.8905,VALID,553.752,VALID,25.6694,VALID,4,VALID,0.89375,
2014-04-13, 09:48:04,VALID,919.332,VALID,0,VALID,63.8537,VALID,556.008,VALID,25.6304,VALID,345,VALID,0.545703,
2014-04-13, 09:49:04,VALID,919.303,VALID,0,VALID,64.578,VALID,534.52,VALID,25.7085,VALID,10,VALID,0.869922,
2014-04-13, 09:50:04,VALID,919.326,VALID,0,VALID,61.0483,VALID,492.51,VALID,25.728,VALID,330,VALID,0.773438,
2014-04-13, 09:51:04,VALID,919.321,VALID,0,VALID,62.2147,VALID,585.662,VALID,25.4761,VALID,329,VALID,0.940234,
2014-04-13, 09:52:04,VALID,919.303,VALID,0,VALID,64.3493,VALID,613.811,VALID,25.3784,VALID,335,VALID,1.06953,
2014-04-13, 09:53:04,VALID,919.323,VALID,0,VALID,61.3837,VALID,615.53,VALID,25.398,VALID,330,VALID,0.810547,
2014-04-13, 09:54:04,VALID,919.32,VALID,0,VALID,63.5336,VALID,609.406,VALID,25.3003,VALID,330,VALID,0.407031,
2014-04-13, 09:55:04,VALID,919.342,VALID,0,VALID,64.3721,VALID,607.795,VALID,25.2808,VALID,283,VALID,1.32891,
2014-04-13, 09:56:04,VALID,919.347,VALID,0,VALID,62.3138,VALID,613.919,VALID,25.1226,VALID,322,VALID,1.2418,
2014-04-13, 09:57:04,VALID,919.369,VALID,0,VALID,63.7241,VALID,596.943,VALID,25.0269,VALID,318,VALID,0.824219,
2014-04-13, 09:58:04,VALID,919.353,VALID,0,VALID,65.447,VALID,581.257,VALID,24.9274,VALID,304,VALID,0.889063,
2014-04-13, 09:59:04,VALID,919.4,VALID,0,VALID,65.9807,VALID,584.05,VALID,24.9664,VALID,318,VALID,0.651563,
2014-04-13, 10:00:04,VALID,919.374,VALID,0,VALID,65.7062,VALID,588.348,VALID,25.0464,VALID,14,VALID,0.973437,
2014-04-13, 10:01:04,VALID,919.398,VALID,0,VALID,65.2641,VALID,560.95,VALID,25.1031,VALID,12,VALID,0.684766,
2014-04-13, 10:02:04,VALID,919.431,VALID,0,VALID,65.1421,VALID,555.363,VALID,25.025,VALID,271,VALID,0.699219,
2014-04-13, 10:03:04,VALID,919.412,VALID,0,VALID,63.8614,VALID,532.263,VALID,25.0445,VALID,351,VALID,1.41172,
2014-04-13, 10:04:04,VALID,919.431,VALID,0,VALID,64.6847,VALID,511.742,VALID,25.0445,VALID,356,VALID,0.996094,
2014-04-13, 10:05:04,VALID,919.428,VALID,0,VALID,62.5654,VALID,484.13,VALID,25.1031,VALID,299,VALID,1.6375,
2014-04-13, 10:06:04,VALID,919.44,VALID,0,VALID,65.2183,VALID,482.948,VALID,25.0445,VALID,9,VALID,1.30195,
2014-04-13, 10:07:04,VALID,919.451,VALID,0,VALID,63.5107,VALID,492.51,VALID,24.9859,VALID,332,VALID,1.23516,
2014-04-13, 10:08:04,VALID,919.433,VALID,0,VALID,65.9197,VALID,520.23,VALID,24.9078,VALID,3,VALID,1.49375,
2014-04-13, 10:09:04,VALID,919.429,VALID,0,VALID,68.5116,VALID,533.768,VALID,24.9469,VALID,30,VALID,0.933984,
2014-04-13, 10:10:04,VALID,919.443,VALID,0,VALID,66.5905,VALID,528.718,VALID,24.9859,VALID,360,VALID,1.20469,
2014-04-13, 10:11:04,VALID,919.421,VALID,0,VALID,66.7125,VALID,539.355,VALID,25.0445,VALID,25,VALID,1.88008,
2014-04-13, 10:12:04,VALID,919.392,VALID,0,VALID,65.3174,VALID,511.205,VALID,25.0836,VALID,343,VALID,0.910937,
2014-04-13, 10:13:04,VALID,919.382,VALID,0,VALID,66.1026,VALID,568.579,VALID,25.1422,VALID,338,VALID,0.357812,
2014-04-13, 10:14:04,VALID,919.368,VALID,0,VALID,65.63,VALID,601.026,VALID,25.2984,VALID,333,VALID,0.473047,
2014-04-13, 10:15:04,VALID,919.336,VALID,0,VALID,65.9654,VALID,609.191,VALID,25.4741,VALID,8,VALID,1.05,
2014-04-13, 10:16:04,VALID,919.322,VALID,0,VALID,63.7851,VALID,619.828,VALID,25.4937,VALID,1,VALID,0.688281,
2014-04-13, 10:17:04,VALID,919.336,VALID,0,VALID,66.9946,VALID,708.897,VALID,25.5523,VALID,22,VALID,1.3332,
2014-04-13, 10:18:04,VALID,919.325,VALID,0,VALID,65.7977,VALID,688.913,VALID,25.5523,VALID,283,VALID,0.571484,
2014-04-13, 10:19:04,VALID,919.287,VALID,0,VALID,62.8627,VALID,682.036,VALID,25.6499,VALID,25,VALID,0.416016,